Location: Newark
(25.0000°N, 73.5000°E)
Time: 19:42:53
(UTC+00:00)

X-37B - Pass Details

Date: 20 June 2021
Orbit: 383 x 392 km, 45.0° (Epoch: 01 July)

Event Time Altitude Azimuth Distance (km) Brightness Sun altitude
Rises 23:39:13 0° 317° (NW) 2,257 4.3 -8.4°
Reaches altitude 10° 23:41:20 10° 325° (NW) 1,403 3.4 -7.9°
Maximum altitude 23:44:22 42° 38° (NE) 557 2.0 -7.3°
Drops below altitude 10° 23:47:23 10° 111° (ESE) 1,404 4.0 -6.8°
Sets 23:49:31 0° 119° (ESE) 2,257 4.9 -6.3°
